Date,TemperatureHighF,TemperatureAvgF,TemperatureLowF,DewpointHighF,DewpointAvgF,DewpointLowF,HumidityHigh,HumidityAvg,HumidityLow,PressureMaxIn,PressureMinIn,WindSpeedMaxMPH,WindSpeedAvgMPH,GustSpeedMaxMPH,PrecipitationSumIn
2013-1-1,77.7,65.3,50.2,62.1,56.8,49.6,98,77,52,30.22,30.05,4,1,14,0.00
2013-1-2,79.9,68.7,56.8,70.1,65.2,55.1,98,89,69,30.07,30.00,7,0,7,0.00
2013-1-3,73.5,65.3,58.9,69.4,63.8,57.5,99,95,82,30.18,30.03,14,1,14,0.09
2013-1-4,60.9,57.5,54.9,59.7,56.5,54.1,98,97,93,30.29,30.16,10,2,11,0.07
2013-1-5,72.4,61.3,55.1,62.3,57.1,50.6,96,87,67,30.31,30.19,12,1,12,0.00
2013-1-6,78.8,66.1,60.7,69.9,63.4,59.3,98,91,71,30.21,30.08,8,0,8,0.01
2013-1-7,67.7,62.8,58.8,63.8,59.3,53.1,97,89,73,30.22,30.11,13,2,13,0.03
2013-1-8,82.3,69.8,60.9,71.3,64.8,60.0,98,85,61,30.23,30.12,11,1,11,0.00
2013-1-9,85.4,74.8,68.5,72.7,68.2,65.2,96,81,57,30.29,30.17,11,1,11,0.00
2013-1-10,81.6,73.9,67.6,71.2,66.7,63.4,98,80,56,30.29,30.21,18,1,18,0.00
2013-1-11,84.8,71.6,61.9,69.0,63.8,60.9,99,79,49,30.26,30.13,13,0,13,0.00
2013-1-12,83.8,70.8,61.8,69.5,66.0,60.9,98,86,54,30.18,30.08,12,0,12,0.00
2013-1-13,82.2,71.8,62.6,69.5,65.1,61.6,97,81,56,30.17,30.06,7,0,7,0.00
2013-1-14,82.0,68.5,58.6,66.9,61.3,57.0,99,80,49,30.19,30.11,8,0,8,0.00
2013-1-15,81.7,66.1,56.7,68.0,61.4,56.1,99,87,54,30.15,30.06,10,0,10,0.00
2013-1-16,63.9,61.0,59.3,63.2,60.5,58.7,99,98,97,30.06,30.04,0,0,0,0.00
2013-1-17,69.8,61.7,53.2,69.5,57.3,45.5,99,86,67,30.17,29.99,20,1,20,0.17
2013-1-18,62.7,54.2,42.4,54.1,46.2,35.9,81,75,66,30.33,30.17,17,4,17,0.00
2013-1-19,74.7,64.8,53.7,60.7,55.4,47.0,86,72,60,30.28,30.13,15,3,15,0.00
2013-1-20,74.8,65.0,59.5,63.6,58.8,54.8,92,81,65,30.19,30.05,12,2,12,0.00
2013-1-21,75.0,64.5,59.8,63.2,57.3,52.6,90,78,64,30.12,30.04,11,1,11,0.00
2013-1-22,61.5,55.5,46.2,52.8,43.0,31.1,76,64,35,30.30,30.09,13,1,13,0.00
2013-1-23,67.9,53.4,43.0,43.8,37.7,32.4,95,58,33,30.38,30.28,14,1,14,0.00
2013-1-24,72.3,54.2,40.4,55.5,47.8,39.4,98,82,44,30.35,30.27,11,1,11,0.00
2013-1-25,75.8,57.2,44.3,60.0,50.2,43.8,99,81,40,30.32,30.20,7,0,7,0.00
2013-1-26,75.8,59.5,46.5,61.0,54.6,46.1,99,86,57,30.29,30.19,12,0,12,0.00
2013-1-27,78.5,62.2,48.7,62.1,55.7,48.3,99,82,45,30.31,30.22,10,1,10,0.00
2013-1-28,81.7,67.8,62.2,67.7,62.9,58.9,96,85,54,30.32,30.21,11,1,11,0.00
2013-1-29,85.3,71.2,58.6,69.0,64.9,57.8,99,82,52,30.24,30.08,11,1,11,0.00
2013-1-30,80.5,72.9,66.9,67.7,66.2,63.6,91,80,63,30.08,29.90,19,3,19,0.00
2013-1-31,70.9,57.3,49.0,67.2,46.0,34.5,97,68,44,30.25,29.97,21,2,21,0.13
2013-2-1,66.2,54.8,46.0,45.6,38.3,30.5,83,56,30,30.37,30.24,10,2,15,0.00
2013-2-2,72.7,56.6,43.4,49.2,42.3,26.8,77,61,20,30.32,30.17,10,1,10,0.00
2013-2-3,72.1,56.5,39.9,58.1,49.0,38.9,98,78,57,30.21,30.11,10,1,10,0.00
2013-2-4,45.9,44.7,43.6,43.0,42.4,41.8,95,92,87,30.10,30.08,1,0,1,0.00
2013-2-5,77.5,58.4,42.0,55.1,48.4,40.3,96,74,41,30.10,30.01,8,1,8,0.00
2013-2-6,79.2,67.2,55.8,63.5,59.3,53.1,95,77,51,30.11,30.02,9,0,9,0.00
2013-2-7,80.5,69.2,60.9,67.5,63.8,58.6,97,84,54,30.06,29.87,15,2,15,0.14
2013-2-8,74.7,65.5,58.1,66.8,61.9,56.1,97,88,69,30.09,29.91,8,1,11,0.00
2013-2-9,77.0,62.7,53.6,62.2,55.7,52.3,98,79,48,30.21,30.08,11,2,11,0.00
2013-2-10,81.7,69.4,60.7,63.9,60.0,55.4,89,73,49,30.25,30.14,13,2,13,0.00
2013-2-11,81.6,70.8,61.7,67.9,64.3,59.9,95,81,60,30.20,30.09,12,1,12,0.00
2013-2-12,81.7,72.9,67.2,72.1,68.9,65.8,97,88,71,30.10,29.95,12,2,12,0.00
2013-2-13,72.6,65.7,59.2,70.0,63.9,55.7,97,94,84,30.00,29.87,11,1,11,0.57
2013-2-14,64.3,60.7,58.6,61.8,59.3,57.3,98,95,87,30.07,29.94,13,0,13,0.31
2013-2-15,68.6,58.1,51.6,59.2,54.5,49.9,98,88,69,30.10,29.98,8,1,8,0.02
2013-2-16,71.2,57.5,46.7,55.5,47.4,35.1,97,71,49,30.16,29.96,18,1,18,0.00
2013-2-17,54.1,44.7,33.9,37.1,27.6,18.1,90,53,37,30.35,30.15,18,3,18,0.00
2013-2-18,70.1,51.3,32.9,50.4,37.9,26.1,93,64,35,30.37,30.21,11,1,11,0.00
2013-2-19,77.2,57.5,47.1,59.1,51.2,45.6,98,82,52,30.23,30.14,16,1,16,0.00
2013-2-20,79.0,64.5,55.2,67.5,57.6,52.3,93,79,64,30.11,30.03,10,0,10,0.00
2013-2-21,84.5,68.0,54.9,67.9,61.5,51.9,97,81,53,30.11,29.99,9,1,9,0.00
2013-2-22,83.5,70.9,60.4,70.8,66.1,59.5,99,86,61,30.07,30.00,11,1,11,0.01
2013-2-23,78.9,72.5,68.6,72.8,70.0,67.3,98,92,81,30.01,29.91,12,2,12,0.00
2013-2-24,81.2,71.5,67.0,73.3,69.2,66.1,99,93,75,29.97,29.88,9,1,9,0.00
2013-2-25,83.0,74.4,68.1,72.8,69.9,67.2,99,87,66,29.91,29.77,11,1,11,0.00
2013-2-26,75.8,71.5,65.4,72.3,67.9,61.2,96,89,74,29.90,29.70,15,1,15,0.49
2013-2-27,72.0,64.3,58.4,62.2,57.5,52.9,89,79,64,30.00,29.88,13,1,13,0.00
2013-2-28,75.5,64.0,56.5,60.6,54.3,47.6,87,72,55,30.02,29.92,7,0,7,0.00
2013-3-1,64.3,57.6,52.1,49.5,44.7,37.7,75,62,52,30.04,29.93,13,1,13,0.00
2013-3-2,61.6,53.6,46.4,45.8,40.7,36.4,81,62,51,30.09,29.99,19,2,19,0.00
2013-3-3,58.7,48.3,42.4,41.9,35.5,28.9,71,61,50,30.17,30.01,13,2,13,0.00
2013-3-4,65.0,51.3,39.3,44.3,37.1,28.8,94,60,40,30.25,30.14,13,1,13,0.00
2013-3-5,74.8,57.3,38.5,61.2,50.6,37.3,98,81,50,30.18,30.04,10,1,10,0.00
2013-3-6,66.5,59.5,53.1,64.0,47.8,40.1,94,67,46,30.16,29.97,24,3,24,0.02
2013-3-7,63.2,51.8,42.1,45.6,39.2,32.7,94,64,38,30.24,30.15,15,2,17,0.00
2013-3-8,73.2,54.7,37.5,50.9,44.7,36.8,98,73,38,30.24,30.14,9,1,9,0.00
2013-3-9,75.2,60.1,45.4,54.6,48.9,43.1,98,70,34,30.23,30.14,12,1,12,0.00
2013-3-10,80.0,66.5,56.9,59.6,55.8,52.1,90,70,44,30.16,30.05,15,1,15,0.00
2013-3-11,77.2,65.9,56.8,62.4,58.7,54.6,95,79,56,30.10,29.88,14,1,14,0.00
2013-3-12,69.5,64.4,57.7,66.9,59.8,51.6,97,85,72,30.06,29.85,13,2,13,0.32
2013-3-13,69.3,61.6,57.0,52.9,46.9,34.8,81,60,32,30.20,30.05,16,3,16,0.00
2013-3-14,59.4,58.9,58.0,52.5,48.5,40.3,79,69,51,30.20,30.18,16,2,16,0.00
2013-3-15,72.0,59.8,46.1,46.2,42.7,30.9,95,58,27,30.30,30.18,10,1,10,0.00
2013-3-16,76.1,55.0,41.5,57.9,48.0,40.8,99,82,32,30.20,30.09,8,0,8,0.00
2013-3-17,74.8,59.7,47.7,60.8,55.2,47.2,99,86,58,30.14,30.00,6,0,6,0.00
2013-3-18,74.2,67.5,58.6,68.3,63.2,56.9,96,86,76,30.04,29.87,12,1,12,0.00
2013-3-19,86.0,69.8,60.9,69.8,64.1,60.0,99,84,55,30.02,29.90,8,0,8,0.00
2013-3-20,72.8,65.6,57.5,66.7,62.6,56.3,98,91,74,29.98,29.82,16,0,16,0.18
2013-3-21,66.5,56.8,44.1,58.8,45.6,32.0,98,69,34,30.01,29.89,14,1,14,0.00
2013-3-22,78.7,60.5,42.0,67.7,52.4,40.6,97,78,40,30.01,29.89,11,1,11,1.15
2013-3-23,82.8,71.8,65.5,75.6,69.4,64.6,98,92,76,29.98,29.81,10,1,10,0.01
2013-3-24,80.3,73.0,70.8,74.6,71.1,69.2,97,94,82,29.82,29.69,10,2,10,0.00
2013-3-25,64.1,60.4,55.7,51.9,46.5,41.3,71,60,47,30.07,29.88,18,3,18,0.00
2013-3-26,59.9,54.8,48.9,46.7,39.1,33.6,66,56,46,30.27,30.06,20,3,20,0.00
2013-3-27,59.6,49.3,40.5,45.1,36.1,28.7,92,61,44,30.35,30.23,16,2,16,0.00
2013-3-28,69.3,55.0,40.1,46.4,39.7,30.6,96,61,29,30.32,30.22,13,1,13,0.00
2013-3-29,76.5,58.7,44.4,54.3,46.5,34.8,96,69,24,30.34,30.21,10,1,10,0.00
2013-3-30,78.0,61.7,45.4,57.6,51.2,43.8,98,73,36,30.26,30.15,9,1,9,0.00
2013-3-31,79.4,65.4,53.3,62.4,57.0,50.1,98,77,41,30.17,30.01,12,1,12,0.00
2013-4-1,81.3,71.0,66.2,71.6,65.2,61.8,91,82,68,30.04,29.96,14,1,14,0.00
2013-4-3,79.4,73.1,70.3,68.9,67.5,63.8,94,84,59,30.03,29.96,4,1,7,0.06
2013-4-4,74.7,70.0,67.3,70.2,67.3,64.3,96,91,73,30.04,29.86,12,1,12,0.55
2013-4-5,74.8,66.7,61.8,67.2,62.4,56.8,97,87,67,30.01,29.81,17,1,17,0.14
2013-4-6,75.3,63.8,54.2,63.1,56.6,50.6,91,78,56,30.12,30.01,15,2,15,0.00
2013-4-7,82.9,69.8,59.5,66.7,60.6,57.8,96,75,44,30.16,30.05,9,1,11,0.00
2013-4-8,86.7,73.6,65.2,66.9,61.8,55.3,90,69,35,30.13,30.04,11,1,11,0.00
2013-4-9,85.0,72.8,61.5,69.2,64.9,60.3,98,78,51,30.16,30.06,13,1,13,0.00
2013-4-10,88.5,75.6,66.1,70.9,65.7,62.3,92,73,45,30.12,29.97,12,1,12,0.00
2013-4-11,88.3,77.9,71.5,72.4,70.5,65.5,91,79,59,29.98,29.81,17,2,17,0.00
2013-4-12,78.5,76.0,71.1,74.7,72.7,68.2,94,90,85,29.93,29.77,14,2,14,0.02
2013-4-13,86.6,74.7,66.2,74.4,68.3,64.7,99,82,61,29.99,29.88,7,0,7,0.00
2013-4-14,84.8,75.2,67.2,75.0,69.2,61.3,91,82,70,30.01,29.85,25,2,25,0.01
2013-4-15,89.0,76.1,66.7,74.8,67.1,62.1,88,74,58,30.07,29.92,8,1,10,0.00
2013-4-16,91.3,76.5,65.6,74.6,69.4,64.0,98,81,50,30.13,30.02,12,1,12,0.00
2013-4-17,88.6,82.9,75.7,68.8,65.0,60.6,71,56,41,30.12,30.01,5,3,14,0.00
2013-4-18,89.0,78.2,68.9,74.5,68.6,64.6,92,74,51,30.04,29.94,5,1,15,0.00
2013-4-19,87.9,79.7,72.6,74.8,72.0,68.2,95,79,54,30.01,29.93,6,2,18,0.00
2013-4-20,76.8,68.7,61.0,73.3,63.6,57.2,93,84,74,30.15,29.98,6,3,16,0.14
2013-4-21,81.9,69.5,60.9,71.1,64.5,56.8,95,85,66,30.14,30.03,11,2,13,0.44
2013-4-22,75.7,68.5,66.8,70.9,67.2,66.2,98,96,82,30.08,29.99,9,2,9,0.43
2013-4-25,73.5,73.2,73.0,66.8,66.0,65.5,80,78,77,30.20,30.19,8,2,8,0.00
2013-4-26,86.8,75.9,63.4,72.9,67.5,61.9,97,76,51,30.24,30.15,10,1,10,0.00
2013-4-27,86.0,76.6,68.3,73.7,68.0,63.0,96,76,49,30.22,30.08,15,2,15,0.00
2013-4-28,87.5,77.0,66.4,71.2,66.4,61.1,91,71,45,30.12,29.97,12,1,12,0.00
2013-4-29,84.7,76.5,67.9,71.4,67.9,61.3,94,76,55,30.02,29.90,10,1,10,0.04
2013-4-30,89.7,75.8,68.1,74.5,69.8,66.7,97,83,53,30.00,29.90,11,1,11,0.55
2013-5-1,74.8,71.3,67.4,73.0,69.5,66.0,97,94,88,30.00,29.91,5,1,8,0.81
2013-5-2,82.9,72.3,66.2,75.0,68.7,65.0,97,89,73,29.97,29.81,7,1,10,0.00
2013-5-3,84.1,74.0,67.5,75.0,70.3,66.6,98,89,69,29.83,29.75,2,0,7,0.71
2013-5-4,83.3,76.0,67.9,73.4,69.5,66.2,98,81,66,29.83,29.72,10,1,10,0.00
2013-5-5,76.2,69.2,63.0,66.3,57.9,50.9,95,69,47,29.95,29.80,19,2,19,0.02
2013-5-6,70.8,68.2,65.5,64.3,60.6,57.0,81,77,67,29.98,29.90,6,0,8,0.00
2013-5-8,81.5,75.4,63.6,67.5,64.2,60.1,92,69,57,30.14,30.09,4,1,7,0.00
2013-5-9,85.4,71.3,58.2,71.4,64.4,57.0,98,80,58,30.15,30.08,4,1,10,0.00
2013-5-10,90.7,75.0,60.7,72.0,66.4,59.8,99,78,43,30.14,30.00,6,1,10,0.00
2013-5-11,89.8,77.3,69.6,76.0,72.0,68.0,98,85,59,30.06,30.00,6,1,13,0.00
2013-5-12,87.5,76.7,67.9,76.1,70.7,66.7,99,83,62,30.05,29.93,4,0,9,0.00
2013-5-13,82.1,74.0,67.3,70.5,60.8,50.7,93,66,40,30.14,30.01,10,2,19,0.00
2013-5-14,82.6,71.6,60.4,60.3,49.1,38.8,75,46,24,30.22,30.12,8,2,14,0.00
2013-5-15,85.8,73.4,59.0,66.3,60.4,53.2,95,66,36,30.21,30.07,8,1,12,0.00
2013-5-16,68.6,66.4,63.8,62.8,61.1,59.9,93,83,77,30.10,30.05,0,0,5,0.00
2013-5-17,88.8,78.2,67.5,72.1,67.4,63.7,95,71,50,30.09,30.02,8,1,8,0.00
2013-5-18,91.0,78.7,69.4,78.2,70.6,66.3,96,78,54,30.11,30.02,7,0,7,0.00
2013-5-19,89.8,76.9,66.6,75.7,69.9,65.7,98,81,54,30.10,30.01,6,0,6,0.00
2013-5-20,88.5,78.6,72.4,74.3,69.2,64.8,91,74,54,30.04,29.97,5,1,14,0.00
2013-5-21,89.8,76.9,67.5,76.8,70.7,66.6,98,82,55,30.03,29.92,7,1,18,0.00
2013-5-22,88.7,78.0,69.3,77.4,71.9,68.0,97,83,62,29.98,29.89,5,1,9,0.00
2013-5-23,89.2,79.3,68.8,77.0,72.7,67.7,98,82,63,30.02,29.92,3,0,9,0.00
2013-5-24,90.4,81.0,73.0,80.4,72.9,66.7,95,78,54,30.08,29.98,6,1,12,0.00
2013-5-25,92.2,82.0,71.2,72.3,65.7,59.6,85,60,36,30.17,30.05,8,2,15,0.00
2013-5-26,88.1,78.3,69.4,64.0,59.7,51.4,79,55,30,30.21,30.10,7,2,14,0.00
2013-5-27,90.0,78.3,65.5,67.8,64.1,60.6,91,64,38,30.18,30.04,9,2,15,0.00
2013-5-28,93.0,79.4,70.5,74.6,70.7,67.3,91,76,50,30.14,30.01,12,2,17,0.09
2013-5-29,87.0,78.6,74.3,72.4,70.5,66.9,89,77,59,30.08,30.01,10,3,21,0.00
2013-5-30,90.4,81.2,75.3,75.0,72.1,68.7,91,75,56,30.08,29.99,13,3,21,0.00
2013-5-31,90.8,80.9,75.0,75.0,71.8,69.0,84,74,57,30.08,29.99,9,2,16,0.00
2013-6-1,90.4,80.4,72.4,80.0,73.8,69.7,97,81,60,30.05,29.94,8,2,14,0.52
2013-6-2,90.1,82.7,74.9,78.6,75.4,73.6,97,79,64,29.99,29.89,3,1,13,0.00
2013-6-3,89.3,79.6,72.9,77.4,74.5,72.0,98,85,67,30.00,29.89,5,1,8,0.03
2013-6-4,89.7,81.0,75.0,76.4,73.6,70.0,95,79,55,30.01,29.93,8,1,12,0.00
2013-6-5,86.8,79.2,73.8,76.4,73.4,71.4,94,83,64,30.00,29.88,4,1,10,0.13
2013-6-6,82.6,76.5,73.9,76.1,73.4,71.8,97,91,77,29.89,29.64,7,3,20,3.37
2013-6-7,88.0,79.5,72.8,78.0,73.5,70.0,95,83,67,29.93,29.78,4,1,13,0.00
2013-6-9,90.8,83.4,75.5,81.0,75.8,73.0,94,79,60,30.09,30.01,6,1,11,0.47
2013-6-10,91.8,81.6,74.6,80.0,75.8,73.0,97,83,62,30.08,30.01,2,0,7,0.00
2013-6-11,92.1,81.7,73.8,82.2,76.5,72.0,97,85,65,30.09,30.01,6,0,13,0.03
2013-6-12,92.6,82.4,72.6,81.0,75.7,71.5,98,81,63,30.08,30.00,6,1,16,0.00
2013-6-13,91.3,82.6,74.8,78.3,75.0,73.4,96,79,59,30.04,29.91,2,0,10,0.00
2013-6-14,90.2,82.9,77.4,79.0,75.4,73.0,87,79,66,29.96,29.88,6,0,9,0.00
2013-6-15,91.7,85.0,80.0,81.4,77.6,74.0,87,79,69,30.05,29.92,4,1,8,0.00
2013-6-16,90.5,83.4,78.4,82.8,77.5,74.9,94,83,69,30.08,30.01,4,1,10,0.14
2013-6-17,93.7,84.4,75.3,80.8,76.7,74.0,98,79,59,30.07,29.99,4,0,7,0.00
2013-6-18,93.7,83.6,73.9,81.0,76.5,72.7,98,81,62,30.05,29.97,3,0,8,0.00
2013-6-19,94.1,83.2,75.8,82.0,75.9,-99.9,97,81,60,30.04,29.97,4,-5,8,0.00
2013-6-20,92.4,82.7,74.2,80.7,74.8,70.0,98,79,51,30.10,30.00,4,0,9,0.00
2013-6-21,90.5,77.6,72.6,77.7,72.7,70.5,95,85,63,30.11,30.03,2,0,12,0.04
2013-6-22,93.1,81.5,73.1,77.1,72.9,68.7,95,78,48,30.11,30.04,7,1,13,0.11
2013-6-23,89.7,78.5,73.0,77.8,74.5,70.6,96,88,64,30.13,30.05,5,1,12,0.75
2013-6-24,93.6,82.9,74.2,79.3,75.4,71.6,97,80,51,30.18,30.05,6,1,10,0.58
2013-6-25,93.4,82.4,73.5,79.2,75.0,70.0,98,80,52,30.16,30.02,5,1,13,0.65
2013-6-26,92.6,80.7,74.1,80.6,75.4,72.0,98,85,60,30.07,29.99,4,0,11,0.10
2013-6-27,93.2,82.3,72.1,81.4,75.5,71.0,99,81,60,30.05,29.94,4,0,8,0.00
2013-6-28,91.8,82.9,74.7,80.1,76.4,73.0,97,82,63,29.97,29.84,5,0,8,0.00
2013-6-29,87.7,81.0,76.7,79.7,75.8,72.8,92,84,67,29.88,29.80,4,0,9,0.15
2013-6-30,90.3,83.1,75.5,79.4,76.2,73.0,94,80,68,29.87,29.79,8,1,12,0.00
2013-7-1,79.5,76.1,72.4,77.2,74.4,70.9,97,94,89,29.98,29.81,7,1,12,2.75
2013-7-2,90.2,79.5,73.0,79.3,74.5,72.0,98,86,65,30.07,29.94,8,1,12,1.78
2013-7-3,91.3,78.1,72.2,79.4,74.6,70.9,98,90,65,30.10,30.01,6,1,19,2.98
2013-7-4,91.8,78.5,72.9,78.6,74.5,71.0,98,88,62,30.15,30.04,9,1,12,0.58
2013-7-5,90.9,77.9,72.7,79.0,74.8,71.0,98,91,64,30.13,30.06,5,1,21,1.39
2013-7-6,89.1,79.4,73.8,79.0,75.8,73.0,98,89,65,30.11,30.02,5,1,10,0.03
2013-7-7,93.5,81.7,75.5,79.0,75.6,73.7,97,83,53,30.13,30.01,6,1,15,0.38
2013-7-8,93.8,81.7,73.7,81.1,76.0,71.5,98,85,59,30.15,30.06,5,1,11,1.71
2013-7-9,92.5,82.0,72.7,81.0,75.3,70.0,99,81,57,30.16,30.04,4,1,10,0.00
2013-7-10,92.3,81.7,73.2,78.8,74.4,71.0,97,80,62,30.08,29.95,9,1,10,0.10
2013-7-11,89.5,80.0,73.5,82.0,75.8,72.6,97,88,70,30.02,29.92,2,0,8,0.52
2013-7-12,91.6,81.5,74.2,79.3,75.5,73.0,98,83,61,29.95,29.88,3,0,7,0.09
2013-7-13,89.7,78.2,73.6,79.1,74.8,72.0,98,90,68,29.97,29.90,5,0,8,0.30
2013-7-14,87.3,79.2,73.8,79.0,75.4,72.6,97,89,74,30.07,29.94,5,0,11,0.39
2013-7-15,91.1,80.4,74.3,79.0,74.4,72.0,95,83,59,30.10,30.00,8,1,13,0.50
2013-7-16,92.3,80.1,75.5,77.0,73.8,71.2,94,82,55,30.14,30.06,12,2,21,0.00
2013-7-17,93.4,78.4,68.9,78.2,73.8,67.5,99,87,56,30.16,30.05,9,1,22,1.56
2013-7-18,89.6,78.2,72.2,77.6,73.8,71.6,99,88,61,30.11,30.03,6,1,10,0.02
2013-7-19,80.0,75.1,73.9,76.0,73.5,72.7,97,95,82,30.11,30.05,2,0,8,0.48
2013-7-20,93.1,80.5,73.4,80.7,75.2,72.0,97,85,59,30.10,30.01,2,0,14,0.00
2013-7-21,92.7,83.3,73.9,81.5,77.1,73.0,98,83,65,30.11,30.04,5,1,10,0.00
2013-7-22,92.1,84.3,76.1,81.2,77.8,75.0,98,82,63,30.13,30.05,6,1,9,0.00
2013-7-23,91.6,83.6,76.2,79.9,76.5,73.6,93,80,63,30.09,29.97,4,0,9,0.00
2013-7-24,91.2,84.5,80.5,80.3,77.5,75.9,89,80,66,30.00,29.91,5,1,11,0.01
2013-7-25,92.4,84.2,76.7,80.6,77.7,75.0,96,81,66,30.00,29.87,4,1,13,1.30
2013-7-26,93.4,82.8,76.5,81.4,77.8,75.0,97,86,58,30.02,29.95,7,0,13,0.07
2013-7-27,92.5,83.6,76.0,79.8,76.7,74.7,98,81,62,30.00,29.92,5,1,10,0.00
2013-7-28,92.9,82.4,75.0,82.0,76.2,73.0,97,82,64,30.05,29.93,3,0,6,0.01
2013-7-29,94.3,82.9,72.2,80.4,75.1,68.3,98,79,46,30.14,30.02,4,0,7,0.30
2013-7-30,95.2,82.7,74.3,83.0,76.0,69.0,98,82,47,30.17,30.06,6,0,14,0.01
2013-7-31,93.7,83.4,75.1,82.0,76.7,72.9,96,81,56,30.13,30.01,5,1,11,0.00
2013-8-1,89.5,83.6,76.8,80.1,76.2,72.6,90,79,70,30.00,29.94,3,0,9,0.55
2013-8-2,93.9,83.6,74.1,81.7,76.4,72.5,97,80,62,30.04,29.94,4,0,9,0.00
2013-8-3,94.2,84.6,75.1,82.4,77.0,73.0,96,79,62,30.09,29.99,3,0,11,0.16
2013-8-4,93.9,85.6,78.8,83.6,78.6,76.0,94,80,67,30.09,29.99,4,0,7,0.01
2013-8-5,94.2,86.9,78.6,83.7,79.2,75.7,96,79,65,30.02,29.93,2,0,7,0.09
2013-8-6,94.2,82.5,76.4,84.0,77.5,73.1,98,85,64,29.99,29.89,5,0,11,0.38
2013-8-7,94.5,81.9,74.8,82.9,76.7,71.0,97,85,57,29.96,29.88,6,1,14,0.15
2013-8-8,93.8,82.0,73.4,80.0,76.3,71.0,97,85,56,30.02,29.91,4,1,10,0.99
2013-8-9,93.9,80.5,73.8,80.1,75.5,72.0,97,86,55,30.05,29.95,8,1,16,0.99
2013-8-10,94.2,83.0,73.5,80.0,75.8,72.6,97,80,55,30.11,30.02,8,1,11,0.01
2013-8-11,94.5,84.9,76.2,81.0,76.8,74.0,95,78,53,30.14,30.05,8,1,10,0.00
2013-8-12,93.9,84.6,75.4,83.2,78.4,74.0,97,83,63,30.12,30.00,5,0,8,0.00
2013-8-13,95.6,85.4,75.8,82.8,77.6,74.0,96,78,58,30.05,29.93,4,0,8,0.00
2013-8-14,94.3,85.3,76.5,81.4,77.6,72.8,97,79,59,30.00,29.92,5,0,11,0.01
2013-8-15,83.0,79.9,77.9,77.3,76.1,75.0,93,88,81,30.03,29.95,0,0,9,0.01
2013-8-16,93.3,84.7,79.3,78.7,76.3,73.7,93,77,57,30.03,29.95,5,0,8,0.00
2013-8-17,95.5,83.3,74.6,82.0,76.6,72.4,98,82,58,30.07,29.97,5,1,12,0.64
2013-8-18,91.8,81.6,76.2,80.6,77.0,74.8,97,87,63,30.09,30.00,7,1,11,0.21
2013-8-19,94.6,81.6,73.0,81.5,76.2,70.3,98,85,54,30.06,29.95,5,1,11,1.95
2013-8-20,92.9,80.4,73.2,80.0,75.1,70.5,98,85,59,30.08,29.98,6,1,15,0.12
2013-8-21,93.8,81.2,73.2,83.0,76.7,71.7,97,87,59,30.10,29.96,5,1,21,1.09
2013-8-22,92.5,82.6,75.7,80.7,77.5,74.0,98,86,58,30.08,29.97,6,1,13,1.87
2013-8-23,92.5,81.9,76.4,81.0,77.0,73.0,98,86,65,30.01,29.95,6,1,13,0.02
2013-8-24,95.3,81.1,74.6,82.9,76.2,73.6,98,86,58,30.11,29.98,7,1,17,0.24
2013-8-25,90.8,77.5,75.3,77.9,74.7,73.6,97,91,64,30.15,30.06,4,0,11,0.29
2013-8-27,92.2,81.0,74.6,78.0,74.1,71.0,97,82,52,30.03,29.97,6,1,12,0.80
2013-8-28,91.1,80.2,70.6,77.4,73.7,69.0,99,82,55,30.06,29.96,6,1,11,0.01
2013-8-29,88.2,76.3,71.7,77.5,72.9,70.5,98,90,68,30.03,29.99,3,0,8,0.00
2013-8-31,76.1,75.9,75.7,74.5,74.3,74.1,95,95,94,29.96,29.95,0,0,0,1.48
2013-9-1,92.6,81.4,74.0,79.8,75.3,72.7,98,83,60,29.98,29.91,3,0,8,0.04
2013-9-2,93.3,82.9,74.8,80.3,75.9,72.9,98,81,58,30.01,29.93,2,0,6,0.00
2013-9-3,92.4,80.5,74.4,81.7,75.3,73.0,98,86,62,30.03,29.93,7,0,9,0.00
2013-9-6,94.6,83.9,75.1,83.0,76.1,71.0,89,78,65,30.03,29.94,9,1,14,0.00
2013-9-7,92.8,80.3,70.9,78.3,72.8,69.0,95,79,50,30.02,29.91,7,1,11,0.00
2013-9-8,91.3,81.1,72.6,78.0,73.5,71.0,96,79,55,29.97,29.86,7,1,12,0.00
2013-9-9,92.3,83.2,73.6,77.4,73.6,69.0,94,74,51,30.02,29.92,8,2,11,0.00
2013-9-10,92.4,83.2,74.9,78.0,72.8,66.6,94,73,49,30.07,29.98,9,2,14,0.00
2013-9-11,93.8,83.1,74.6,77.0,72.3,66.2,93,72,43,30.06,29.97,12,2,16,0.00
2013-9-12,92.3,81.3,74.4,79.2,74.8,72.0,95,81,61,30.02,29.88,6,1,10,0.00
2013-9-13,74.8,73.8,73.1,72.6,72.2,71.9,97,95,93,29.91,29.87,0,0,10,0.00
2013-9-15,95.2,82.1,74.5,78.1,73.3,69.0,93,76,54,30.07,29.95,7,2,21,0.02
2013-9-16,94.8,79.8,73.8,77.5,74.4,71.7,97,85,54,30.06,29.97,7,1,20,0.34
2013-9-17,92.4,80.2,71.7,78.0,74.1,70.8,98,83,54,30.05,29.92,11,1,12,0.01
2013-9-18,92.2,79.0,74.8,78.2,74.4,71.9,95,87,59,30.03,29.95,8,1,14,0.40
2013-9-19,90.0,78.8,74.7,77.9,74.2,72.0,94,87,62,30.05,29.97,6,2,10,0.00
2013-9-22,89.3,81.3,76.2,80.2,75.8,73.7,97,84,72,29.85,29.77,2,0,9,0.53
2013-9-23,82.5,77.9,75.9,80.0,76.5,74.7,98,95,86,29.94,29.82,3,0,7,1.44
2013-9-24,81.6,78.0,74.4,78.4,76.1,73.0,98,94,88,29.95,29.84,4,1,11,1.60
2013-9-25,80.2,75.8,70.2,78.4,74.2,69.0,99,95,86,29.91,29.78,4,1,12,2.98
2013-9-26,91.9,81.6,75.4,82.8,77.2,71.0,95,87,71,29.88,29.78,5,1,12,0.00
2013-9-27,86.9,76.3,69.8,79.1,71.1,68.0,95,84,66,29.97,29.87,5,2,14,0.00
2013-9-28,88.7,77.9,70.2,77.5,72.1,68.7,96,83,58,30.00,29.92,7,2,14,0.00
2013-9-29,90.0,78.9,70.1,74.9,71.1,68.0,93,78,52,29.99,29.89,7,1,13,0.00
2013-9-30,90.9,79.3,71.5,77.0,72.7,70.0,96,81,54,29.99,29.91,5,1,9,0.00
2013-10-1,91.7,80.9,73.3,77.0,73.6,70.0,95,80,52,30.04,29.95,8,1,18,0.80
2013-10-2,88.8,77.6,72.8,76.0,72.4,70.0,92,84,61,30.05,30.00,6,2,18,0.00
2013-10-9,80.7,75.9,68.7,72.2,69.4,65.0,89,80,73,30.04,29.98,6,2,28,0.13
2013-10-10,85.3,73.8,63.7,72.1,67.2,62.5,97,81,62,30.06,29.97,5,1,12,0.00
2013-10-11,87.1,76.6,67.0,71.3,67.4,63.9,96,75,55,30.04,29.95,4,0,11,0.00
2013-10-12,85.0,73.9,64.3,70.2,64.8,62.1,97,76,48,30.05,29.97,6,1,14,0.00
2013-10-13,86.2,73.4,61.8,71.0,64.3,60.6,98,75,48,30.09,29.99,4,1,11,0.00
2013-10-14,84.0,74.5,63.7,71.8,66.8,62.0,98,78,56,30.05,29.94,11,2,15,0.00
2013-10-15,81.7,72.6,66.6,73.4,68.5,64.8,96,87,75,30.01,29.91,7,1,13,0.00
2013-10-16,84.3,74.4,67.3,72.8,69.2,66.0,98,85,62,29.97,29.90,4,0,10,0.00
2013-10-17,87.8,76.1,68.1,76.6,71.1,67.0,98,85,60,29.98,29.90,7,0,9,0.00
2013-10-18,90.5,78.0,68.9,76.7,72.4,68.0,98,84,55,29.98,29.89,5,1,11,0.00
2013-10-19,88.4,78.4,70.7,78.3,74.3,69.8,98,88,67,29.95,29.87,5,0,9,0.00
2013-10-20,89.0,79.3,72.9,77.2,73.7,71.0,98,84,62,29.96,29.87,4,0,7,0.00
2013-10-21,88.4,79.1,71.8,77.0,73.7,70.4,97,84,63,29.99,29.92,3,1,10,0.00
2013-10-22,87.3,77.1,70.7,77.0,73.0,70.0,99,88,66,29.95,29.83,8,1,14,0.22
2013-10-23,78.1,73.8,68.2,73.4,65.0,55.0,98,75,50,30.02,29.81,11,2,18,0.01
2013-10-24,72.2,65.9,57.3,59.0,50.0,44.0,90,57,44,30.17,30.01,7,2,14,0.00
2013-10-25,78.0,60.4,52.0,58.0,53.1,49.8,97,81,41,30.25,30.15,6,1,12,0.00
2013-11-5,82.7,78.5,73.0,69.9,67.8,66.6,83,70,63,30.11,30.04,14,4,18,0.00
2013-11-6,85.5,76.5,70.5,70.9,68.7,65.9,91,78,54,30.10,30.01,7,2,11,0.00
2013-11-7,81.8,72.2,66.4,70.4,67.6,65.0,97,86,64,30.06,29.97,4,0,10,0.00
2013-11-8,72.4,69.1,66.6,69.5,64.6,57.9,95,86,63,30.10,30.00,9,3,13,0.00
2013-11-10,76.6,71.1,69.0,69.2,66.3,65.5,90,85,78,30.13,30.08,5,1,9,0.00
2013-11-11,83.2,71.8,64.9,70.2,66.0,62.0,94,83,61,30.16,30.06,5,1,12,0.00
2013-11-12,80.5,69.6,63.1,70.2,65.3,57.0,98,87,66,30.11,30.02,8,1,13,0.00
2013-11-13,68.7,60.5,52.1,57.4,50.2,46.0,81,69,59,30.31,30.08,15,6,20,0.00
2013-11-14,75.7,64.3,51.3,60.0,54.8,46.0,85,72,55,30.29,30.16,7,2,18,0.00
2013-11-15,71.6,67.1,63.2,66.0,62.1,57.9,92,84,74,30.18,30.05,8,1,10,0.07
2013-11-16,73.9,70.5,67.4,71.0,68.1,65.0,97,92,88,30.12,30.01,6,1,9,0.32
2013-11-17,77.8,70.2,68.6,72.2,66.9,65.0,94,89,83,30.08,30.02,6,1,9,0.00
2013-11-18,83.6,77.3,73.5,73.0,71.7,69.8,96,84,68,30.01,29.92,8,1,11,0.00
2013-11-19,80.7,73.2,66.0,73.0,68.8,60.6,97,87,69,29.97,29.88,7,1,12,0.01
2013-11-20,80.3,70.7,63.2,72.6,66.7,60.5,92,87,77,30.09,29.97,7,2,13,0.00
2013-11-21,84.1,75.2,70.6,73.0,70.2,68.0,94,85,66,30.17,30.07,12,3,17,0.00
2013-11-22,84.3,75.1,69.0,72.1,69.2,65.8,96,83,61,30.18,30.08,7,2,16,0.00
2013-11-23,81.9,71.6,63.8,70.1,66.2,62.3,97,84,59,30.12,30.02,9,1,11,0.00
2013-11-24,69.7,65.2,57.7,67.4,59.9,51.0,95,83,72,30.22,30.04,12,4,20,0.00
2013-11-25,74.6,68.2,57.7,64.0,59.4,51.0,85,74,63,30.22,30.04,12,4,18,0.00
2013-11-26,80.7,73.1,67.6,74.0,70.2,63.7,96,91,78,30.04,29.76,12,3,19,0.64
2013-11-27,71.5,63.0,47.4,70.5,56.5,39.9,97,80,67,30.21,29.74,18,2,23,0.04
2013-11-28,61.1,49.4,37.0,49.2,41.3,30.0,88,74,47,30.36,30.21,8,2,23,0.00
2013-11-29,72.5,58.4,50.0,57.0,51.9,47.0,92,80,54,30.36,30.26,9,3,16,0.00
2013-11-30,76.1,64.3,54.4,64.0,58.1,49.0,94,81,63,30.32,30.17,9,2,18,0.00
2013-12-1,72.7,62.2,58.7,65.4,60.1,58.0,98,93,78,30.19,30.01,6,1,11,0.00
2013-12-2,65.1,62.0,58.9,58.3,57.3,55.9,92,85,75,29.91,29.87,0,0,6,0.00
2013-12-3,78.9,66.9,54.2,68.0,62.1,53.0,98,86,62,29.98,29.88,6,1,10,0.00
2013-12-4,82.8,71.6,64.7,72.4,67.5,64.0,98,88,63,30.07,29.95,3,0,8,0.01
2013-12-5,84.2,71.8,64.7,70.6,66.5,63.6,98,85,57,30.16,30.07,4,0,10,0.00
2013-12-6,83.7,72.3,63.8,73.0,68.1,63.0,98,88,67,30.15,30.08,9,1,15,0.01
2013-12-8,85.4,76.2,67.2,70.5,67.7,64.7,93,76,59,30.18,30.08,6,1,11,0.01
2013-12-9,82.2,72.0,63.2,73.4,68.1,62.0,98,88,71,30.17,30.08,8,1,16,0.00
2013-12-10,81.8,71.4,60.7,72.3,67.8,60.0,99,89,69,30.17,30.08,8,1,13,0.01
2013-12-11,70.1,69.2,68.5,69.0,66.9,65.8,95,92,91,30.16,30.15,8,3,10,0.00
2013-12-12,58.2,55.0,52.9,38.9,36.3,34.7,58,50,42,30.30,30.29,3,1,8,0.00
2013-12-13,75.4,62.0,46.1,60.1,51.7,39.0,85,70,45,30.29,30.10,6,2,12,0.00
2013-12-14,81.5,72.6,63.9,72.0,67.7,60.0,93,85,71,30.10,29.93,11,2,19,0.00
2013-12-15,73.8,66.9,58.2,73.0,63.0,53.5,97,87,73,30.14,29.88,13,2,15,0.00
2013-12-16,61.5,54.5,47.3,53.2,46.8,42.0,87,76,59,30.23,30.11,8,2,13,0.00
2013-12-17,69.8,54.7,42.5,51.1,45.3,39.4,95,73,36,30.26,30.16,7,1,11,0.00
2013-12-18,70.5,55.3,44.4,54.3,48.5,42.9,98,81,43,30.29,30.21,7,1,15,0.01
2013-12-19,76.4,59.2,46.3,60.1,51.6,42.8,94,78,48,30.27,30.16,8,1,11,0.00
2013-12-20,84.0,69.9,59.8,68.5,63.3,57.0,93,81,59,30.19,30.08,8,1,11,0.00
2013-12-21,84.6,74.3,66.6,72.4,68.5,65.0,96,83,64,30.12,30.00,7,1,12,0.00
2013-12-22,83.0,74.7,68.8,74.0,70.3,67.9,97,87,69,30.12,30.05,14,2,18,0.00
2013-12-23,82.3,74.1,66.4,75.0,71.2,65.5,98,91,78,30.16,30.08,9,2,20,0.00
2013-12-24,72.4,61.7,50.6,71.2,50.3,32.0,96,70,30,30.27,30.12,12,3,20,0.01
2013-12-25,75.0,60.5,46.8,60.2,49.1,34.0,77,67,57,30.26,30.12,7,2,12,0.00
2013-12-26,77.7,65.9,58.8,65.1,59.4,56.0,92,80,55,30.21,30.09,6,2,11,0.00
2013-12-27,70.5,64.8,60.6,65.5,61.2,57.0,93,88,83,30.25,30.14,8,3,14,0.02
2013-12-28,78.3,70.4,64.3,70.1,66.7,62.0,96,88,76,30.20,29.98,12,2,13,0.00
2013-12-29,75.3,69.5,62.6,72.0,67.6,61.7,98,94,89,30.02,29.88,8,1,15,0.40
2013-12-30,68.8,62.3,58.9,62.1,59.0,53.8,97,89,76,30.20,30.01,5,1,10,0.00
2013-12-31,69.0,63.1,58.4,54.4,52.1,49.6,85,68,53,30.30,30.16,10,2,13,0.00
2014-1-1,62.3,60.2,57.4,61.2,57.8,52.0,98,92,69,30.25,30.05,8,2,13,0.27
2014-1-2,76.5,67.2,59.6,73.0,65.9,55.0,99,96,84,30.05,29.84,8,2,19,0.37